ARIANE DEB (SPELDA) - Orbit

View from above orbital plane
View from above orbital plane
View from above satellite
View from above satellite

Ground track
Ground track

The orbit data is extracted from the following two-line orbital elements,

1 27402U 02015D   13137.82077829  .00000876  00000-0  14743-2 0  7025
2 27402 003.6335 065.4600 7112058 076.4052 353.0286 02.43632114 97230
Epoch (UTC): 17 May 2013 19:41:55
Eccentricity: 0.7112058
inclination: 3.6335°
perigee height: 359 km
apogee height: 33544 km
right ascension of ascending node: 65.4600°
argument of perigee: 76.4052°
revolutions per day: 2.43632114
mean anomaly at epoch: 353.0286°
orbit number at epoch: 9723

The dashed part of the orbit path shows where the satellite is in the earth's shadow,  

Developed and maintained by Chris Peat, Heavens-Above GmbH. Please read the updated FAQ before sending e-mail. Imprint. DLR